sat.trackr.live / text

‹ back to catalog

STARLINK-30861

NORAD 58230 · 2023-171A

PAYLOAD ACTIVE UNKNOWN

§ Identity

Operator
Country
US
Launch date
2023-11-08
Launch site
AFETR
Launch vehicle
Mass (kg)
RCS (m²)

Purposes: comms

External: N2YO · Heavens-Above · Gunter

§ Orbital elements

Epoch: 2026-09-20T01:22:22.172448Z

Period
93.50 min
Inclination
42.9885°
Eccentricity
0.0014157
Mean motion
15.40173761 rev/d
Perigee alt
435.9 km
Apogee alt
455.3 km
Semi-major
6,823.7 km
B*
1.4074e-3
RAAN
261.9499°
Arg perigee
91.2668°
Mean anomaly
268.9810°
Rev number
15,952

§ Raw data

STARLINK-308611 58230U 23171A   26263.05720107  .00058104  00000+0  14074-2 0  99982 58230  42.9885 261.9499 0014157  91.2668 268.9810 15.40173761159527

JSON: /api/v1/satellites/58230 · /tle

For live sub-satellite position, see the globe view (requires WebGL).

§ Visibility from observer

Set your observer location to see the next 7 days of passes ≥ 10°. The values pass through the URL so the page stays shareable.

No JS? Fill the form by hand. The geolocation button needs JavaScript.